IRIDIUM 114

Last updated on Tue Sep 22 2026 00:03:20 GMT+0000 (Coordinated Universal Time)

1 41923U 17003G 26264.35702258 .00000167 00000+0 52696-4 0 9997 2 41923 86.3951 48.2252 0002205 90.7181 269.4267 14.34217839507034
UTC large
Height (km)
Speed (km/s)
/
Latitude / Longitude
Inclination (degrees)
Orbital Period (minutes)
Azimuth
Elevation
Range (km)
Doppler Factor

Next 0 passes for location: London (51.5072 / 0.1276)

No passes found over London.
IRIDIUM 114